Weather in Loutra Edipsou

Greece     38°51′23″N   23°02′35″E
temp.,
°C
wind,
m/s
gust,
m/s
humid.,
%
clouds,
%
prec.,
mm/h
press.,
hPa
HPBL,
m
16 april, fri
fri1600:00+11nne1164100 0.0 1017119
03:00+10nnw117254 0.0 1016124
06:00+10nw228088 0.0 1017163
09:00+12nne347497 0.1 1018573
12:00+13n2266100 0.0 1019699
15:00+12nne347799 0.1 1018648
18:00+12ne2376100 0.0 1017698
21:00+12ne3377100 0.0 1017444
17 april, sat
sat1700:00+12ne2378100 0.0 1017383
03:00+12nne3377100 0.0 1016300
06:00+12n2381100 0.1 1014339
09:00+12nne3683100 0.2 1015777
12:00+12n3588100 0.1 1014565
15:00+13n3489100 0.4 1012491
18:00+12n3392100 0.3 1011361
21:00+12nnw3392100 0.6 1011252
18 april, sun
sun1800:00+12nw1292100 0.1 1011193
03:00+12n1191100 0.1 1011179
06:00+12sse119195 0.0 1011174
09:00+14wnw018429 0.0 1011295
12:00+15ne2181100 0.0 1011355
15:00+17ne2370100 0.0 1010405
18:00+18nw1270100 0.0 100941
21:00+16nnw018042 0.0 101021
19 april, mon
mon1900:00+14wsw22780 0.0 101022
03:00+13wsw33720 0.0 1009100
06:00+12w44690 0.0 1008150
09:00+14sw22620 0.0 1008263
12:00+16nne13478 0.0 10081302
15:00+19sw673836 0.0 10061344
18:00+17wsw56445 0.0 10061110
21:00+13wsw455918 0.0 1008118
20 april, tue
tue2000:00+11wsw456616 0.0 1009191
03:00+10wsw45690 0.0 1010180
06:00+10sw33715 0.0 1011139
09:00+12sw22620 0.0 1013285
12:00+15e23510 0.0 1013948
15:00+15e115781 0.0 1012490
18:00+17ese22523 0.2 1012422
21:00+15sw22603 0.3 101317